#Datum;Uhrzeit;WR;Pac;DaySum;Status;WR;Pac;DaySum;Status;Pdc1;Udc;Temp;WR;Pac;DaySum;Status;Pdc1;Udc;Temp;WR;Pac;DaySum;Status;Pdc1;Udc;Temp;WR;Pac;DaySum;Status;Pdc1;Pdc2;Udc1;Udc2;Temp;WR;Pac;DaySum;Status;Pdc1;Pdc2;Udc1;Udc2;Temp;WR;Pac;DaySum;Status;Pdc1;Udc;Temp;WR;Pac;DaySum;Status;Pdc1;Udc;Temp;WR;Pac;DaySum;Status;Pdc1;Udc;Temp
12.06.20;23:55:00;1;399;11995;0;2;0;41516;0;0;0;0;3;0;26927;0;0;0;0;4;0;37197;0;0;0;0;5;0;84917;0;0;0;0;0;0;6;0;64451;0;0;0;0;0;0;7;0;47485;0;0;0;0;8;0;47695;0;0;0;0;9;0;26333;0;0;0;0
12.06.20;23:50:00;1;356;11963;0;2;0;41516;0;0;0;0;3;0;26927;0;0;0;0;4;0;37197;0;0;0;0;5;0;84917;0;0;0;0;0;0;6;0;64451;0;0;0;0;0;0;7;0;47485;0;0;0;0;8;0;47695;0;0;0;0;9;0;26333;0;0;0;0
12.06.20;23:45:00;1;356;11933;0;2;0;41516;0;0;0;0;3;0;26927;0;0;0;0;4;0;37197;0;0;0;0;5;0;84917;0;0;0;0;0;0;6;0;64451;0;0;0;0;0;0;7;0;47485;0;0;0;0;8;0;47695;0;0;0;0;9;0;26333;0;0;0;0
12.06.20;23:40:00;1;395;11902;0;2;0;41516;0;0;0;0;3;0;26927;0;0;0;0;4;0;37197;0;0;0;0;5;0;84917;0;0;0;0;0;0;6;0;64451;0;0;0;0;0;0;7;0;47485;0;0;0;0;8;0;47695;0;0;0;0;9;0;26333;0;0;0;0
12.06.20;23:35:00;1;437;11870;0;2;0;41516;0;0;0;0;3;0;26927;0;0;0;0;4;0;37197;0;0;0;0;5;0;84917;0;0;0;0;0;0;6;0;64451;0;0;0;0;0;0;7;0;47485;0;0;0;0;8;0;47695;0;0;0;0;9;0;26333;0;0;0;0
12.06.20;23:30:00;1;352;11839;0;2;0;41516;0;0;0;0;3;0;26927;0;0;0;0;4;0;37197;0;0;0;0;5;0;84917;0;0;0;0;0;0;6;0;64451;0;0;0;0;0;0;7;0;47485;0;0;0;0;8;0;47695;0;0;0;0;9;0;26333;0;0;0;0
12.06.20;23:25:00;1;433;11809;0;2;0;41516;0;0;0;0;3;0;26927;0;0;0;0;4;0;37197;0;0;0;0;5;0;84917;0;0;0;0;0;0;6;0;64451;0;0;0;0;0;0;7;0;47485;0;0;0;0;8;0;47695;0;0;0;0;9;0;26333;0;0;0;0
12.06.20;23:20:00;1;455;11773;0;2;0;41516;0;0;0;0;3;0;26927;0;0;0;0;4;0;37197;0;0;0;0;5;0;84917;0;0;0;0;0;0;6;0;64451;0;0;0;0;0;0;7;0;47485;0;0;0;0;8;0;47695;0;0;0;0;9;0;26333;0;0;0;0
12.06.20;23:15:00;1;466;11735;0;2;0;41516;0;0;0;0;3;0;26927;0;0;0;0;4;0;37197;0;0;0;0;5;0;84917;0;0;0;0;0;0;6;0;64451;0;0;0;0;0;0;7;0;47485;0;0;0;0;8;0;47695;0;0;0;0;9;0;26333;0;0;0;0
12.06.20;23:10:00;1;459;11696;0;2;0;41516;0;0;0;0;3;0;26927;0;0;0;0;4;0;37197;0;0;0;0;5;0;84917;0;0;0;0;0;0;6;0;64451;0;0;0;0;0;0;7;0;47485;0;0;0;0;8;0;47695;0;0;0;0;9;0;26333;0;0;0;0
12.06.20;23:05:00;1;386;11658;0;2;0;41516;0;0;0;0;3;0;26927;0;0;0;0;4;0;37197;0;0;0;0;5;0;84917;0;0;0;0;0;0;6;0;64451;0;0;0;0;0;0;7;0;47485;0;0;0;0;8;0;47695;0;0;0;0;9;0;26333;0;0;0;0
12.06.20;23:00:00;1;378;11626;0;2;0;41516;0;0;0;0;3;0;26927;0;0;0;0;4;0;37197;0;0;0;0;5;0;84917;0;0;0;0;0;0;6;0;64451;0;0;0;0;0;0;7;0;47485;0;0;0;0;8;0;47695;0;0;0;0;9;0;26333;0;0;0;0
12.06.20;22:55:00;1;397;11594;0;2;0;41516;0;0;0;0;3;0;26927;0;0;0;0;4;0;37197;0;0;0;0;5;0;84917;2;0;0;0;0;0;6;0;64451;2;0;0;0;0;0;7;0;47485;0;0;0;0;8;0;47695;0;0;0;0;9;0;26333;0;0;0;0
12.06.20;22:50:00;1;417;11560;0;2;0;41516;0;0;0;0;3;0;26927;0;0;0;0;4;0;37197;0;0;0;0;5;0;84917;2;0;0;0;0;0;6;0;64451;2;0;0;0;0;0;7;0;47485;0;0;0;0;8;0;47695;0;0;0;0;9;0;26333;0;0;0;0
12.06.20;22:45:00;1;495;11525;0;2;0;41516;0;0;0;0;3;0;26927;0;0;0;0;4;0;37197;0;0;0;0;5;0;84917;2;0;0;0;0;0;6;0;64451;2;0;0;0;0;0;7;0;47485;0;0;0;0;8;0;47695;0;0;0;0;9;0;26333;0;0;0;0
12.06.20;22:40:00;1;513;11486;0;2;0;41516;0;0;0;0;3;0;26927;0;0;0;0;4;0;37197;0;0;0;0;5;0;84917;2;0;0;0;0;0;6;0;64451;2;0;0;0;0;0;7;0;47485;0;0;0;0;8;0;47695;0;0;0;0;9;0;26333;0;0;0;0
12.06.20;22:35:00;1;525;11443;0;2;0;41516;0;0;0;0;3;0;26927;0;0;0;0;4;0;37197;0;0;0;0;5;0;84917;2;0;0;0;0;0;6;0;64451;2;0;0;0;0;0;7;0;47485;0;0;0;0;8;0;47695;0;0;0;0;9;0;26333;0;0;0;0
12.06.20;22:30:00;1;498;11381;0;2;0;41516;0;0;0;0;3;0;26927;0;0;0;0;4;0;37197;0;0;0;0;5;0;84917;2;0;0;0;0;0;6;0;64451;2;0;0;0;0;0;7;0;47485;0;0;0;0;8;0;47695;0;0;0;0;9;0;26333;0;0;0;0
12.06.20;22:25:00;1;483;11341;0;2;0;41516;0;0;0;0;3;0;26927;0;0;0;0;4;0;37197;0;0;0;0;5;0;84917;2;0;0;0;0;0;6;0;64451;2;0;0;0;0;0;7;0;47485;0;0;0;0;8;0;47695;0;0;0;0;9;0;26333;0;0;0;0
12.06.20;22:20:00;1;466;11301;0;2;0;41516;0;0;0;0;3;0;26927;0;0;0;0;4;0;37197;0;0;0;0;5;0;84917;2;0;0;0;0;0;6;0;64451;2;0;0;0;0;0;7;0;47485;0;0;0;0;8;0;47695;0;0;0;0;9;0;26333;0;0;0;0
12.06.20;22:15:00;1;538;11261;0;2;0;41516;0;0;0;0;3;0;26927;0;0;0;0;4;0;37197;0;0;0;0;5;0;84917;2;0;0;0;0;0;6;0;64451;2;0;0;0;0;0;7;0;47485;0;0;0;0;8;0;47695;0;0;0;0;9;0;26333;0;0;0;0
12.06.20;22:10:00;1;509;11216;0;2;0;41516;0;0;0;0;3;0;26927;0;0;0;0;4;0;37197;0;0;0;0;5;0;84917;2;0;0;0;0;0;6;0;64451;2;0;0;0;0;0;7;0;47485;0;0;0;0;8;0;47695;0;0;0;0;9;0;26333;0;0;0;0
12.06.20;22:05:00;1;502;11174;0;2;0;41516;0;0;0;0;3;0;26927;0;0;0;0;4;0;37197;0;0;0;0;5;0;84917;2;0;0;0;0;0;6;0;64451;2;0;0;0;0;0;7;0;47485;0;0;0;0;8;0;47695;0;0;0;0;9;0;26333;0;0;0;0
12.06.20;22:00:00;1;635;11132;0;2;0;41516;0;0;0;0;3;0;26927;0;0;0;0;4;0;37197;0;0;0;0;5;0;84917;2;0;0;0;0;0;6;0;64451;2;0;0;0;0;0;7;0;47485;0;0;0;0;8;0;47695;0;0;0;0;9;0;26333;0;0;0;0
12.06.20;21:55:00;1;469;11085;0;2;0;41516;0;0;0;0;3;0;26927;0;0;0;0;4;0;37197;0;0;0;0;5;0;84917;2;0;0;0;0;0;6;0;64451;2;0;0;0;0;0;7;0;47485;0;0;0;0;8;0;47695;0;0;0;0;9;0;26333;0;0;0;0
12.06.20;21:50:00;1;533;11045;0;2;0;41516;0;0;0;0;3;0;26927;0;0;0;0;4;0;37197;0;0;0;0;5;0;84917;2;0;0;0;0;0;6;0;64451;2;0;0;0;0;0;7;0;47485;0;0;0;0;8;0;47695;0;0;0;0;9;0;26333;0;0;0;0
12.06.20;21:45:00;1;463;11001;0;2;0;41516;0;0;0;0;3;0;26927;0;0;0;0;4;0;37197;0;0;0;0;5;0;84917;2;0;0;0;0;0;6;0;64451;2;0;0;0;0;0;7;0;47485;0;0;0;0;8;0;47695;0;0;0;0;9;0;26333;0;0;0;0
12.06.20;21:40:00;1;459;10964;0;2;0;41516;0;0;0;0;3;0;26927;0;0;42;5;4;0;37197;0;0;0;0;5;0;84917;2;0;0;0;0;0;6;0;64451;2;0;0;0;0;0;7;0;47485;0;0;0;0;8;0;47695;0;0;0;0;9;0;26333;0;0;0;0
12.06.20;21:35:00;1;1018;10925;0;2;0;41516;0;0;187;20;3;0;26927;6;0;297;31;4;0;37197;0;0;39;19;5;0;84917;2;0;0;0;0;0;6;0;64451;2;0;0;0;0;0;7;0;47485;0;0;0;0;8;0;47695;0;0;0;0;9;0;26333;0;0;0;0
12.06.20;21:30:00;1;874;10843;0;2;0;41516;6;0;293;29;3;0;26927;6;0;348;31;4;0;37197;1;0;96;34;5;0;84917;2;0;0;0;0;0;6;0;64451;2;0;0;0;0;1;7;0;47485;0;0;0;0;8;0;47695;0;0;0;0;9;0;26333;0;0;0;0
12.06.20;21:25:00;1;452;10784;0;2;0;41516;6;0;323;30;3;0;26927;6;0;402;32;4;0;37197;1;0;137;34;5;0;84917;26;0;0;283;306;40;6;0;64451;2;5;0;304;161;33;7;0;47485;0;0;184;20;8;0;47695;0;0;226;25;9;0;26333;2;0;231;22
12.06.20;21:20:00;1;452;10745;0;2;0;41516;6;0;342;30;3;0;26927;6;2;416;32;4;0;37197;1;0;168;35;5;0;84917;26;0;0;358;367;41;6;0;64451;23;2;7;492;193;40;7;0;47485;6;0;322;31;8;0;47695;6;0;325;30;9;0;26333;6;0;338;27
12.06.20;21:15:00;1;514;10709;0;2;0;41516;6;0;358;31;3;1;26927;6;2;438;33;4;0;37197;1;0;193;35;5;0;84917;23;0;0;377;550;41;6;0;64451;23;9;3;294;400;40;7;0;47485;6;0;371;31;8;0;47695;6;0;373;31;9;0;26333;6;0;390;27
12.06.20;21:10:00;1;873;10662;0;2;0;41516;6;0;372;32;3;2;26927;4;4;451;33;4;0;37197;1;0;203;36;5;18;84917;1;0;1;370;591;42;6;0;64451;23;6;0;254;526;41;7;0;47485;6;0;405;31;8;0;47695;6;0;406;31;9;0;26333;6;2;422;27
12.06.20;21:05:00;1;560;10595;0;2;0;41516;6;0;388;32;3;2;26927;6;9;455;33;4;0;37197;3;0;207;36;5;26;84916;1;0;5;383;611;42;6;0;64451;23;5;3;482;538;42;7;0;47485;6;0;430;32;8;0;47695;6;4;402;31;9;1;26333;6;2;438;28
12.06.20;21:00:00;1;557;10549;0;2;31;41516;6;61;364;33;3;4;26926;6;10;481;34;4;0;37197;3;0;216;36;5;80;84913;4;0;11;362;575;43;6;57;64451;4;32;35;449;421;43;7;1;47485;4;4;427;32;8;1;47695;6;4;426;32;9;2;26333;6;3;461;28
12.06.20;20:55:00;1;623;10502;0;2;76;41513;4;112;355;34;3;23;26926;6;42;465;35;4;1;37197;3;1;199;37;5;101;84906;4;11;27;362;576;43;6;71;64451;4;30;29;449;421;43;7;1;47485;6;7;288;21;8;0;47695;6;6;440;32;9;0;26332;6;3;480;28
12.06.20;20:50:00;1;566;10451;0;2;121;41507;4;158;356;35;3;68;26924;4;107;438;35;4;7;37197;3;7;199;37;5;123;84898;4;19;35;362;576;43;6;86;64451;4;43;43;449;421;43;7;4;47485;6;10;442;33;8;5;47695;3;8;443;32;9;1;26332;4;5;484;28
12.06.20;20:45:00;1;604;10405;0;2;174;41497;4;212;355;35;3;104;26919;4;142;448;36;4;11;37197;3;12;198;37;5;144;84887;4;27;44;362;576;43;6;98;64451;4;43;46;449;421;43;7;17;47485;6;34;411;33;8;11;47694;6;20;432;33;9;2;26332;6;6;491;29
12.06.20;20:40:00;1;467;10359;0;2;227;41482;4;270;361;36;3;138;26910;4;177;433;36;4;27;37196;3;28;198;38;5;162;84875;4;38;56;362;576;43;6;89;64451;4;43;47;359;336;34;7;39;47483;4;74;356;33;8;36;47693;4;73;356;33;9;3;26332;6;8;492;29
12.06.20;20:35:00;1;428;10321;0;2;303;41463;4;347;368;37;3;185;26898;4;226;439;37;4;38;37193;3;39;197;38;5;184;84861;4;56;65;362;576;44;6;126;64448;4;50;53;449;421;43;7;39;47480;4;69;292;26;8;52;47690;4;81;363;33;9;5;26332;6;9;395;23
12.06.20;20:30:00;1;514;10285;0;2;371;41439;4;423;371;37;3;231;26883;4;275;452;37;4;46;37190;3;48;197;38;5;201;84846;4;66;71;362;576;44;6;137;64438;4;72;73;449;421;43;7;39;47475;0;59;224;20;8;58;47686;4;91;379;33;9;10;26331;6;20;472;30
12.06.20;20:25:00;1;492;10242;0;2;459;41408;4;511;363;38;3;286;26864;4;334;460;37;4;56;37186;3;58;197;38;5;218;84829;4;75;83;362;576;44;6;149;64426;4;69;70;449;421;43;7;74;47471;4;110;395;34;8;74;47681;4;110;373;34;9;4;26331;6;9;511;30
12.06.20;20:20:00;1;481;10200;0;2;545;41370;4;600;369;38;3;341;26840;4;389;467;38;4;64;37182;3;66;197;39;5;236;84810;4;80;88;362;576;44;6;157;64413;4;64;62;449;421;43;7;88;47464;4;119;369;34;8;81;47675;4;120;408;34;9;7;26330;4;12;507;30
12.06.20;20:15:00;1;487;10160;0;2;637;41324;4;697;374;39;3;402;26812;4;454;469;38;4;69;37176;3;72;198;39;5;251;84791;4;87;96;362;576;44;6;168;64400;4;86;83;449;421;43;7;97;47457;4;131;379;34;8;89;47668;4;126;384;34;9;16;26330;3;22;484;31
12.06.20;20:10:00;1;491;10119;0;2;727;41271;4;791;376;40;3;455;26778;4;509;473;39;4;83;37171;3;86;199;39;5;267;84770;4;98;107;362;576;44;6;176;64386;4;90;84;449;421;43;7;105;47449;4;142;381;34;8;101;47661;4;139;395;34;9;15;26328;6;27;467;31
12.06.20;20:05:00;1;481;10078;0;2;842;41211;4;909;374;41;3;526;26740;4;582;469;39;4;89;37164;3;93;200;40;5;283;84747;4;106;108;362;576;44;6;188;64371;4;75;73;449;421;43;7;129;47440;4;168;399;35;8;124;47652;4;157;371;34;9;7;26327;4;14;511;32
12.06.20;20:00:00;1;509;10038;0;2;934;41141;4;1004;378;41;3;574;26697;4;630;461;40;4;96;37156;5;100;204;40;5;295;84724;4;115;112;362;576;44;6;195;64355;4;117;115;449;421;43;7;124;47429;4;151;308;28;8;147;47642;4;190;406;35;9;61;26326;4;89;441;32
12.06.20;19:55:00;1;486;9980;0;2;1044;41063;4;1119;376;42;3;636;26649;4;699;463;40;4;103;37148;5;107;205;41;5;307;84699;4;123;119;362;576;44;6;207;64339;4;112;114;449;421;43;7;159;47416;4;184;328;28;8;174;47630;4;220;428;35;9;63;26320;4;94;426;33
12.06.20;19:50:00;1;424;9942;0;2;1133;40977;4;1208;374;43;3;683;26596;4;743;447;40;4;113;37139;5;118;208;41;5;315;84673;4;127;125;362;575;44;6;210;64322;4;76;73;449;421;44;7;101;47396;0;117;168;14;8;159;47616;4;193;350;28;9;52;26314;0;81;357;26
12.06.20;19:45:00;1;744;9906;0;2;1236;40882;4;1319;376;44;3;729;26539;4;789;446;41;4;120;37130;5;125;215;42;5;327;84647;4;134;127;362;576;44;6;216;64304;4;111;110;449;421;44;7;114;47380;4;132;177;14;8;247;47599;4;296;443;36;9;76;26310;4;109;472;34
12.06.20;19:40:00;1;425;9852;0;2;1339;40780;4;1427;376;45;3;776;26479;4;839;428;41;4;137;37120;5;143;218;42;5;338;84620;4;137;135;362;576;44;6;226;64286;4;122;124;449;421;44;7;280;47357;4;319;336;28;8;301;47579;4;349;440;36;9;90;26304;4;122;474;34
12.06.20;19:35:00;1;494;9816;0;2;1455;40668;4;1549;378;46;3;833;26414;4;897;427;42;4;150;37109;5;156;228;43;5;345;84591;4;145;140;362;576;45;6;229;64267;4;139;137;449;421;44;7;463;47327;4;507;432;36;8;246;47544;0;279;297;24;9;98;26296;4;131;457;34
12.06.20;19:30:00;1;471;9775;0;2;1572;40547;4;1671;373;46;3;888;26345;4;952;423;42;4;169;37096;5;176;214;43;5;356;84563;4;151;143;362;575;45;6;235;64248;4;110;113;449;421;44;7;571;47289;4;616;451;37;8;286;47525;4;315;262;22;9;106;26288;4;136;383;35
12.06.20;19:25:00;1;887;9736;0;2;1691;40416;4;1798;373;47;3;965;26271;4;1031;425;43;4;308;37082;5;320;200;44;5;378;84533;4;161;155;362;576;45;6;262;64228;4;161;159;449;421;44;7;685;47241;4;744;451;37;8;709;47484;4;763;444;37;9;172;26279;4;202;362;36
12.06.20;19:20:00;1;553;9674;0;2;1798;40275;4;1908;378;48;3;1022;26190;4;1094;444;43;4;713;37056;5;742;200;45;5;406;84501;4;178;161;364;576;45;6;281;64207;4;114;110;449;421;44;7;798;47184;4;855;443;37;8;821;47425;4;876;449;37;9;213;26264;4;245;366;36
12.06.20;19:15:00;1;892;9614;0;2;1910;40125;4;2026;378;49;3;1095;26105;4;1163;425;44;4;1108;36998;5;1154;201;45;5;486;84467;4;218;195;386;579;45;6;375;64183;4;195;209;512;517;44;7;918;47117;4;990;443;38;8;586;47321;0;626;267;22;9;236;26246;4;269;364;37
12.06.20;19:10:00;1;871;9560;0;2;2008;39967;4;2131;373;50;3;1166;26014;4;1241;427;44;4;1298;36907;5;1352;220;46;5;579;84426;4;263;244;370;598;45;6;453;64151;4;201;214;554;526;44;7;1041;47042;4;1112;460;38;8;1048;47280;4;1118;441;38;9;300;26222;0;332;289;30
12.06.20;19:05:00;1;453;9494;0;2;2125;39799;4;2253;374;50;3;1232;25917;4;1310;430;45;4;1447;36799;5;1507;223;46;5;721;84376;4;342;299;384;616;45;6;548;64112;4;261;264;552;532;44;7;1183;46955;4;1259;454;39;8;1191;47193;4;1265;443;39;9;499;26197;4;546;405;39
12.06.20;19:00:00;1;477;9456;0;2;2215;39624;4;2348;378;51;3;1298;25815;4;1376;427;45;4;1535;36679;5;1599;225;47;5;848;84316;4;404;345;395;620;45;6;635;64067;4;364;367;559;522;44;7;1305;46859;4;1382;451;39;8;522;47096;4;551;184;15;9;655;26156;4;718;466;39
12.06.20;18:55:00;1;493;9416;0;2;2319;39438;4;2454;376;52;3;1350;25706;4;1429;433;46;4;1633;36551;5;1701;224;47;5;1011;84244;4;487;421;397;623;46;6;753;64013;4;400;389;558;526;44;7;1136;46748;4;1210;369;31;8;1190;46949;0;1260;358;32;9;771;26102;4;838;500;40
12.06.20;18:50:00;1;497;9375;0;2;2403;39246;4;2542;365;52;3;1432;25594;4;1517;431;47;4;1714;36415;5;1785;224;47;5;1160;84159;4;574;481;394;633;46;6;873;63950;4;468;469;558;531;44;7;1557;46630;4;1644;451;40;8;1593;46865;4;1677;446;40;9;843;26037;4;913;501;40
12.06.20;18:45:00;1;523;9331;0;2;2525;39045;4;2671;371;53;3;1533;25475;4;1621;435;47;4;1829;36273;5;1905;223;48;5;1353;84061;4;673;567;394;627;46;6;1030;63875;4;505;508;561;539;45;7;1710;46502;4;1807;453;40;8;1740;46734;4;1840;445;40;9;560;25942;0;604;298;24
12.06.20;18:40:00;1;484;9287;0;2;2619;38835;4;2764;366;54;3;1591;25348;4;1681;446;48;4;1914;36121;5;1993;222;48;5;1520;83947;4;753;631;391;634;47;6;1147;63789;4;557;556;561;534;45;7;1829;46360;4;1931;452;40;8;1858;46590;4;1956;446;41;9;999;25891;4;1073;493;41
12.06.20;18:35:00;1;514;9245;0;2;2693;38618;4;2849;367;55;3;1631;25215;4;1725;449;48;4;1996;35962;5;2079;223;48;5;1698;83818;4;878;719;392;632;47;6;1289;63692;4;616;609;561;541;45;7;1960;46209;4;2071;453;41;8;1994;46439;4;2102;449;41;9;1072;25811;4;1148;494;42
12.06.20;18:30:00;1;505;9203;0;2;2782;38393;4;2939;369;56;3;1681;25079;4;1774;443;49;4;2086;35795;5;2173;222;49;5;1888;83675;4;974;809;390;629;47;6;1434;63583;4;736;724;557;537;45;7;2082;46044;4;2202;451;41;8;2115;46267;4;2232;449;41;9;1139;25718;4;1222;493;42
12.06.20;18:25:00;1;482;9161;0;2;2866;38162;4;3029;365;56;3;1713;24939;4;1807;428;49;4;2162;35622;5;2252;221;49;5;2104;83515;4;1100;901;395;643;47;6;1581;63462;4;805;785;557;534;45;7;2215;45869;4;2333;449;41;8;2239;46091;4;2362;446;42;9;1213;25623;4;1297;495;43
12.06.20;18:20:00;1;621;9120;0;2;2938;37922;4;3107;368;57;3;1757;24797;4;1855;433;50;4;2238;35441;5;2331;221;49;5;2292;83340;4;1203;984;398;636;48;6;1729;63330;4;917;880;556;531;46;7;2326;45685;4;2455;446;42;8;2361;45904;4;2483;451;42;9;1280;25522;4;1364;495;43
12.06.20;18:15:00;1;474;9072;0;2;3036;37678;4;3213;369;58;3;1850;24650;4;1952;436;50;4;2335;35255;5;2432;221;49;5;2500;83147;4;1318;1083;391;638;48;6;1903;63184;4;998;973;559;536;46;7;2468;45491;4;2599;447;42;8;2496;45707;4;2629;445;42;9;1354;25415;4;1445;489;44
12.06.20;18:10:00;1;491;9031;0;2;3119;37424;4;3301;363;59;3;1921;24496;4;2026;447;51;4;2419;35061;5;2519;219;49;5;2695;82937;4;1431;1169;397;634;48;6;2031;63025;4;1057;1009;555;524;46;7;2596;45286;4;2737;451;43;8;2617;45500;4;2752;448;43;9;1423;25302;4;1515;493;44
12.06.20;18:05:00;1;433;8993;0;2;3203;37164;4;3389;355;59;3;1994;24336;4;2109;445;52;4;2507;34858;5;2611;220;49;5;2925;82710;4;1565;1269;394;637;48;6;2204;62854;4;1136;1088;556;529;46;7;2726;45069;4;2870;448;43;8;2749;45282;4;2898;444;43;9;1498;25184;4;1595;492;45
12.06.20;18:00:00;1;409;8955;0;2;3284;36898;4;3473;361;60;3;2045;24170;4;2159;446;52;4;2573;34649;5;2680;218;49;5;3118;82465;4;1640;1337;390;646;49;6;2353;62670;4;1219;1181;554;531;46;7;2830;44842;4;2985;446;43;8;2863;45053;4;3011;443;44;9;1250;25030;0;1331;387;36
12.06.20;17:55:00;1;431;8920;0;2;3360;36624;4;3547;358;60;3;2093;23999;4;2207;443;52;4;2661;34436;5;2772;218;49;5;3325;82203;4;1773;1447;393;638;49;6;2521;62472;4;1294;1283;556;535;46;7;2947;44606;4;3101;445;44;8;2971;44817;4;3129;443;44;9;1624;24932;4;1727;492;45
12.06.20;17:50:00;1;483;8884;0;2;3422;36344;4;3619;356;60;3;2130;23825;4;2249;443;52;4;2724;34214;5;2837;220;49;5;3522;81925;4;1888;1539;392;632;49;6;2662;62262;4;1375;1326;552;534;47;7;3049;44361;4;3204;443;44;8;3070;44567;4;3228;440;44;9;1679;24794;4;1785;484;46
12.06.20;17:45:00;1;500;8842;0;2;3487;36059;4;3686;355;61;3;2201;23648;4;2326;451;53;4;2802;33987;5;2919;218;48;5;3729;81630;4;1998;1630;392;632;49;6;2813;62038;4;1429;1376;551;534;47;7;2636;44107;4;2768;361;36;8;3186;44311;4;3349;438;44;9;1449;24655;4;1538;404;38
12.06.20;17:40:00;1;598;8799;0;2;3547;35768;4;3751;359;61;3;2252;23464;4;2373;447;53;4;2868;33754;5;2987;217;48;5;3919;81319;4;2115;1717;395;631;50;6;2958;61803;4;1531;1494;551;535;47;7;3264;43844;4;3434;439;45;8;3283;44046;4;3455;433;45;9;1800;24509;4;1911;486;47
12.06.20;17:35:00;1;587;8749;0;2;3615;35472;4;3818;356;61;3;2300;23277;4;2423;446;53;4;2948;33514;5;3071;216;48;5;4134;80990;4;2228;1814;393;624;50;6;3120;61555;4;1624;1576;552;534;47;7;3390;43572;4;3562;439;45;8;3408;43771;4;3586;436;45;9;1865;24359;4;1980;485;47
12.06.20;17:30:00;1;516;8701;0;2;3662;35172;4;3875;356;62;3;2331;23085;4;2456;443;53;4;2992;33269;5;3116;215;48;5;4306;80646;4;2315;1897;393;626;50;6;3244;61295;4;1682;1633;548;528;47;7;3497;43293;4;3684;439;45;8;2802;43417;0;2966;350;36;9;1926;24207;4;2042;484;47
12.06.20;17:25:00;1;541;8657;0;2;3738;34866;4;3953;355;62;3;2379;22891;4;2508;443;54;4;3074;33019;5;3202;215;49;5;4519;80285;4;2448;1990;388;625;50;6;3409;61022;4;1751;1686;546;525;48;7;3611;42999;4;3798;438;45;8;3628;43196;4;3816;434;46;9;1993;24043;4;2110;479;48
12.06.20;17:20:00;1;651;8611;0;2;3785;34556;4;4003;355;62;3;2413;22693;4;2540;442;54;4;3129;32764;5;3259;213;49;5;4687;79908;4;2540;2065;389;627;50;6;3542;60738;4;1825;1768;549;530;48;7;3685;42698;4;3876;438;46;8;3706;42895;4;3897;438;46;9;2042;23878;4;2167;479;48
12.06.20;17:15:00;1;504;8563;0;2;3864;34239;4;4087;351;63;3;2455;22492;4;2588;444;54;4;3210;32503;5;3344;214;49;5;4900;79515;4;2666;2152;389;627;50;6;3706;60441;4;1940;1883;546;531;48;7;3775;42391;4;3964;431;46;8;3795;42586;4;3993;428;47;9;2093;23708;4;2216;482;48
12.06.20;17:10:00;1;465;8521;0;2;3901;33917;4;4129;356;63;3;2493;22287;4;2633;461;54;4;3259;32236;5;3394;213;49;5;5060;79106;4;2754;2228;389;623;51;6;3825;60132;4;1983;1919;541;528;48;7;3857;42077;4;4056;429;46;8;3106;42270;4;3269;344;37;9;2138;23532;4;2267;474;49
12.06.20;17:05:00;1;467;8483;0;2;3926;33592;4;4157;354;63;3;2554;22079;4;2691;448;55;4;3306;31964;5;3444;212;50;5;5216;78683;4;2839;2303;383;622;51;6;3945;59812;4;2053;1994;539;524;48;7;3941;41755;4;4143;427;47;8;3972;41946;4;4183;428;47;9;2187;23354;4;2317;475;49
12.06.20;17:00:00;1;492;8444;0;2;3969;33265;4;4197;351;63;3;2586;21867;4;2722;446;55;4;3356;31689;5;3495;212;50;5;5385;78247;4;2936;2380;384;620;51;6;4079;59483;4;2095;2043;537;522;48;7;4048;41427;4;4257;434;47;8;4070;41615;4;4283;427;47;9;2249;23172;4;2380;476;49
12.06.20;16:55:00;1;553;8402;0;2;4005;32934;4;4240;355;64;3;2628;21651;4;2767;440;55;4;3419;31409;5;3562;210;50;5;5588;77797;4;3048;2468;382;620;50;6;4229;59141;4;2187;2087;539;522;48;7;4151;41090;4;4362;424;47;8;4170;41276;4;4387;424;48;9;2305;22984;4;2437;473;50
12.06.20;16:50:00;1;534;8356;0;2;4071;32600;4;4306;350;64;3;2649;21432;4;2791;444;55;4;3467;31124;5;3611;210;50;5;5746;77330;4;3131;2545;382;618;50;6;4358;58788;4;2229;2173;535;522;49;7;4223;40744;4;4435;427;48;8;4239;40929;4;4462;432;48;9;2341;22792;4;2481;471;50
12.06.20;16:45:00;1;541;8311;0;2;4157;32261;4;4399;353;64;3;2707;21211;4;2847;443;55;4;3544;30835;5;3691;210;51;5;5935;76849;4;3249;2628;382;619;50;6;4497;58423;4;2274;2229;535;519;49;7;4317;40392;4;4534;430;48;8;4346;40576;4;4572;426;48;9;2401;22599;4;2535;470;50
12.06.20;16:40:00;1;464;8269;0;2;4170;31915;4;4412;353;64;3;2722;20986;4;2867;446;55;4;3580;30540;5;3728;208;51;5;6085;76354;4;3341;2696;378;619;50;6;4603;58048;4;2376;2319;533;518;49;7;4433;40032;4;4659;429;48;8;4434;40212;4;4664;427;49;9;2449;22399;4;2589;469;51
12.06.20;16:35:00;1;469;8230;0;2;4224;31568;4;4474;354;64;3;2768;20759;4;2911;439;55;4;3646;30242;5;3798;209;51;5;6275;75845;4;3420;2775;383;621;50;6;4742;57663;4;2451;2392;531;517;49;7;4529;39663;4;4765;430;48;8;4537;39847;4;4773;428;49;9;2506;22195;4;2650;471;51
12.06.20;16:30:00;1;478;8191;0;2;4304;31216;4;4559;355;64;3;2817;20528;4;2965;445;55;4;3729;29938;5;3885;211;51;5;6493;75321;4;3555;2887;383;621;50;6;4917;57267;4;2526;2458;533;519;49;7;4601;39289;4;4843;425;49;8;4612;39469;4;4857;422;49;9;2550;21989;4;2697;474;51
12.06.20;16:25:00;1;558;8151;0;2;4341;30859;4;4594;356;65;3;2843;20294;4;2992;447;56;4;3778;29627;5;3936;209;51;5;6658;74780;4;3665;2953;379;620;50;6;5052;56856;4;2588;2540;534;521;49;7;4639;38904;4;4879;416;49;8;4679;39082;4;4922;421;49;9;2156;21772;4;2278;391;42
12.06.20;16:20:00;1;585;8104;0;2;4387;30496;4;4637;353;65;3;2861;20057;4;3009;446;56;4;3818;29313;5;3977;209;51;5;6798;74224;4;3725;3022;379;614;50;6;5144;56435;4;2654;2579;533;517;49;7;3768;38517;4;3962;333;39;8;4748;38692;4;4996;424;50;9;2631;21557;4;2779;465;52
12.06.20;16:15:00;1;653;8053;0;2;4406;30130;4;4663;356;65;3;2895;19818;4;3044;441;56;4;3852;28994;5;4012;204;52;5;6931;73657;4;3805;3082;375;619;49;6;5257;56004;4;2725;2638;529;516;49;7;4785;38123;4;5022;416;49;8;4798;38296;4;5043;420;50;9;2219;21293;0;2340;386;43
12.06.20;16:10:00;1;566;8001;0;2;4508;29764;4;4764;356;65;3;2948;19577;4;3098;444;56;4;3926;28673;5;4090;207;52;5;7129;73078;4;3926;3166;378;616;50;6;5397;55566;4;2785;2704;532;521;49;7;4907;37728;4;5157;424;49;8;4920;37901;4;5161;421;50;9;2714;21118;4;2864;465;52
12.06.20;16:05:00;1;570;7953;0;2;4583;29387;4;4844;352;65;3;2983;19332;4;3132;439;56;4;3990;28345;5;4157;210;52;5;7310;72482;4;4032;3250;379;622;49;6;5550;55114;4;2882;2800;532;520;49;7;4979;37319;4;5229;416;50;8;4985;37489;4;5248;428;50;9;2767;20891;4;2920;469;52
12.06.20;16:00:00;1;569;7906;0;2;4534;29007;4;4793;355;65;3;2983;19083;4;3136;441;56;4;4003;28014;5;4170;208;52;5;7424;71873;4;4100;3296;378;617;49;6;5630;54652;4;2897;2826;529;517;50;7;5024;36902;4;5290;413;50;8;5051;37071;4;5313;425;50;9;2800;20661;4;2958;468;53
12.06.20;15:55:00;1;544;7858;0;2;4573;28628;4;4839;352;65;3;3005;18834;4;3156;436;56;4;4040;27679;5;4208;206;52;5;7562;71253;4;4178;3359;378;616;49;6;5740;54182;4;2981;2886;528;516;50;7;5111;36482;4;5378;424;50;8;5130;36650;4;5401;428;50;9;2849;20425;4;3011;466;53
12.06.20;15:50:00;1;517;7812;0;2;4606;28248;4;4873;353;65;3;3022;18584;4;3176;438;56;4;4086;27344;5;4256;206;52;5;7705;70622;4;4237;3431;375;615;49;6;5836;53703;4;3001;2921;530;517;50;7;5183;36058;4;5454;423;50;8;5202;36223;4;5478;420;51;9;2890;20188;4;3047;466;53
12.06.20;15:45:00;1;518;7769;0;2;4694;27864;4;4968;356;65;3;3077;18332;4;3232;441;56;4;4151;27003;5;4324;209;53;5;7887;69979;4;4347;3514;379;616;49;6;5991;53215;4;3103;3011;530;518;50;7;5270;35626;4;5549;422;50;8;5284;35790;4;5561;422;51;9;2934;19947;4;3093;469;53
12.06.20;15:40:00;1;519;7726;0;2;4701;27471;4;4975;355;65;3;3077;18076;4;3233;444;56;4;4165;26657;5;4338;208;53;5;7974;69321;4;4401;3549;378;617;49;6;6053;52716;4;3136;3052;528;519;50;7;5276;35186;4;5550;418;50;8;5297;35349;4;5574;420;51;9;2945;19703;4;3105;463;53
12.06.20;15:35:00;1;507;7682;0;2;4737;27080;4;5010;355;65;3;3098;17819;4;3254;439;55;4;4196;26310;5;4370;208;53;5;8105;68656;4;4478;3610;379;619;49;6;6157;52210;4;3168;3101;527;516;49;7;5334;34746;4;5611;418;50;8;5346;34911;4;5627;419;51;9;2972;19459;4;3135;469;54